When you browse on this site, cookies collect data to enhance your experience and personalize the content and advertising you see.
Visit our Privacy Policy to learn more. By continuing to use the site, you agree to this use of cookies and data.
  • In Hungary
  • List of Countries
  • For 7 days
  • Water Temperature
  • Weather Map
  • News
  • Weather Widgets
  • user-avatar
    Login

    Hourly Weather Karbas

    Today, 20 September, Friday

    Time Temperature Precipitation Wind Pressure Humidity
    00:00 +3°C° 0 mm 2 mps 736 mmHg 93%
    01:00 +2°C° 0 mm 2 mps 736 mmHg 94%
    02:00 +2°C° 0 mm 2 mps 737 mmHg 94%
    03:00 +1°C° 0 mm 2 mps 737 mmHg 94%
    04:00 +1°C° 0 mm 2 mps 738 mmHg 94%
    05:00 +1°C° 0 mm 2 mps 738 mmHg 94%
    06:00 -1°C° 0 mm 2 mps 739 mmHg 95%
    07:00 -1°C° 0 mm 2 mps 739 mmHg 95%
    08:00 +1°C° 0 mm 3 mps 740 mmHg 89%
    09:00 +3°C° 0 mm 3 mps 740 mmHg 83%
    10:00 +4°C° 0 mm 3 mps 740 mmHg 76%
    11:00 +5°C° 0 mm 3 mps 741 mmHg 70%
    12:00 +7°C° 0 mm 3 mps 741 mmHg 64%
    13:00 +8°C° 0 mm 3 mps 741 mmHg 58%
    14:00 +8°C° 0.1 mm 3 mps 741 mmHg 57%
    15:00 +8°C° 0.1 mm 3 mps 741 mmHg 57%
    16:00 +8°C° 0.1 mm 3 mps 742 mmHg 56%
    17:00 +6°C° 0 mm 2 mps 742 mmHg 65%
    18:00 +5°C° 0 mm 2 mps 742 mmHg 73%
    19:00 +4°C° 0 mm 1 mps 742 mmHg 81%
    20:00 +3°C° 0 mm 1 mps 742 mmHg 82%
    21:00 +3°C° 0 mm 1 mps 742 mmHg 84%
    22:00 +2°C° 0 mm 1 mps 742 mmHg 85%
    23:00 +2°C° 0 mm 1 mps 742 mmHg 85%

    Tomorrow, 21 September, Saturday

    Time Temperature Precipitation Wind Pressure Humidity
    00:00 +2°C° 0 mm 1 mps 742 mmHg 86%
    01:00 +2°C° 0 mm 1 mps 742 mmHg 86%
    02:00 +2°C° 0 mm 1 mps 742 mmHg 86%
    03:00 +2°C° 0 mm 1 mps 742 mmHg 87%
    04:00 +2°C° 0 mm 1 mps 742 mmHg 87%
    05:00 +2°C° 0 mm 1 mps 742 mmHg 87%
    06:00 +2°C° 0 mm 1 mps 741 mmHg 87%
    07:00 +2°C° 0 mm 1 mps 741 mmHg 87%
    08:00 +4°C° 0 mm 1 mps 741 mmHg 81%
    09:00 +6°C° 0 mm 1 mps 741 mmHg 74%
    10:00 +8°C° 0 mm 1 mps 740 mmHg 67%
    11:00 +8°C° 0 mm 1 mps 740 mmHg 65%
    12:00 +9°C° 0 mm 1 mps 739 mmHg 63%
    13:00 +9°C° 0 mm 1 mps 739 mmHg 61%
    14:00 +9°C° 0.3 mm 1 mps 738 mmHg 68%
    15:00 +8°C° 0.3 mm 1 mps 738 mmHg 75%
    16:00 +7°C° 0.3 mm 1 mps 737 mmHg 83%
    17:00 +7°C° 0.4 mm 1 mps 737 mmHg 86%
    18:00 +6°C° 0.4 mm 1 mps 737 mmHg 90%
    19:00 +5°C° 0.4 mm 1 mps 737 mmHg 94%
    20:00 +5°C° 0.1 mm 1 mps 737 mmHg 95%
    21:00 +5°C° 0.1 mm 1 mps 736 mmHg 95%
    22:00 +5°C° 0.1 mm 1 mps 736 mmHg 95%
    23:00 +4°C° 0 mm 1 mps 736 mmHg 96%

    Day after tomorrow, 22 September, Sunday

    Time Temperature Precipitation Wind Pressure Humidity
    00:00 +3°C° 0 mm 1 mps 736 mmHg 96%
    01:00 +2°C° 0 mm 1 mps 736 mmHg 96%
    02:00 +1°C° 0 mm 1 mps 735 mmHg 96%
    03:00 -1°C° 0 mm 2 mps 735 mmHg 97%
    04:00 -2°C° 0 mm 2 mps 735 mmHg 97%
    05:00 -2°C° 0 mm 2 mps 735 mmHg 97%
    06:00 -2°C° 0 mm 2 mps 735 mmHg 97%
    07:00 -2°C° 0 mm 2 mps 734 mmHg 97%
    08:00 +1°C° 0 mm 2 mps 734 mmHg 92%
    09:00 +2°C° 0 mm 2 mps 734 mmHg 87%
    10:00 +4°C° 0 mm 2 mps 734 mmHg 82%
    11:00 +5°C° 0.1 mm 2 mps 733 mmHg 77%
    12:00 +6°C° 0.1 mm 2 mps 733 mmHg 71%
    13:00 +5°C° 0.1 mm 3 mps 733 mmHg 66%
    14:00 +5°C° 0.1 mm 3 mps 733 mmHg 64%
    15:00 +5°C° 0.1 mm 3 mps 733 mmHg 62%
    16:00 +5°C° 0.1 mm 3 mps 732 mmHg 61%
    17:00 +4°C° 0 mm 2 mps 732 mmHg 68%
    18:00 +4°C° 0 mm 1 mps 732 mmHg 76%
    19:00 +1°C° 0 mm 0 mps 732 mmHg 84%
    20:00 +1°C° 0 mm 0 mps 732 mmHg 84%
    21:00 +2°C° 0 mm 1 mps 732 mmHg 84%
    22:00 +2°C° 0 mm 1 mps 732 mmHg 83%
    23:00 +1°C° 0 mm 1 mps 732 mmHg 85%

    23 September, Monday

    Time Temperature Precipitation Wind Pressure Humidity
    00:00 +1°C° 0 mm 1 mps 732 mmHg 87%
    01:00 +1°C° 0 mm 1 mps 732 mmHg 88%
    02:00 +1°C° 0 mm 1 mps 731 mmHg 90%
    03:00 +1°C° 0 mm 1 mps 731 mmHg 92%
    04:00 +1°C° 0 mm 1 mps 731 mmHg 93%
    05:00 +1°C° 0 mm 1 mps 731 mmHg 93%
    06:00 +1°C° 0 mm 1 mps 731 mmHg 92%
    07:00 +1°C° 0 mm 1 mps 731 mmHg 92%
    08:00 +3°C° 0 mm 1 mps 731 mmHg 84%
    09:00 +4°C° 0 mm 1 mps 731 mmHg 77%
    10:00 +6°C° 0 mm 1 mps 731 mmHg 69%
    11:00 +5°C° 0.1 mm 2 mps 731 mmHg 69%
    12:00 +4°C° 0.1 mm 3 mps 731 mmHg 68%
    13:00 +4°C° 0.1 mm 3 mps 731 mmHg 67%
    14:00 +4°C° 0 mm 3 mps 731 mmHg 67%
    15:00 +3°C° 0 mm 3 mps 731 mmHg 66%
    16:00 +3°C° 0 mm 3 mps 731 mmHg 65%
    17:00 +2°C° 0 mm 3 mps 732 mmHg 73%
    18:00 +1°C° 0 mm 2 mps 732 mmHg 81%
    19:00 -1°C° 0 mm 2 mps 732 mmHg 88%
    20:00 -1°C° 0 mm 2 mps 732 mmHg 91%
    21:00 -2°C° 0 mm 2 mps 733 mmHg 93%
    22:00 -4°C° 0 mm 3 mps 733 mmHg 95%
    23:00 -4°C° 0 mm 3 mps 733 mmHg 94%

    24 September, Tuesday

    Time Temperature Precipitation Wind Pressure Humidity
    00:00 -4°C° 0 mm 3 mps 733 mmHg 94%
    01:00 -5°C° 0 mm 3 mps 733 mmHg 93%
    02:00 -4°C° 0 mm 3 mps 734 mmHg 92%
    03:00 -4°C° 0 mm 4 mps 734 mmHg 90%
    04:00 -4°C° 0 mm 4 mps 734 mmHg 89%
    05:00 -3°C° 0.2 mm 4 mps 734 mmHg 90%
    06:00 -4°C° 0.2 mm 5 mps 734 mmHg 91%
    07:00 -2°C° 0.2 mm 5 mps 735 mmHg 92%
    08:00 -2°C° 0.1 mm 5 mps 735 mmHg 90%
    09:00 -1°C° 0.1 mm 5 mps 735 mmHg 88%
    10:00 -1°C° 0.1 mm 5 mps 736 mmHg 86%
    11:00 0°C° 0 mm 5 mps 736 mmHg 82%
    12:00 0°C° 0 mm 5 mps 737 mmHg 79%
    13:00 +1°C° 0 mm 5 mps 737 mmHg 75%
    14:00 +1°C° 0 mm 5 mps 738 mmHg 75%
    15:00 0°C° 0 mm 5 mps 738 mmHg 76%
    16:00 0°C° 0 mm 5 mps 738 mmHg 76%
    17:00 0°C° 0 mm 5 mps 739 mmHg 79%
    18:00 -1°C° 0 mm 5 mps 739 mmHg 81%
    19:00 -1°C° 0 mm 5 mps 739 mmHg 84%
    20:00 -1°C° 0 mm 4 mps 739 mmHg 84%
    21:00 -2°C° 0 mm 4 mps 739 mmHg 85%
    22:00 -2°C° 0 mm 4 mps 739 mmHg 86%
    23:00 -2°C° 0 mm 4 mps 740 mmHg 86%

    25 September, Wednesday

    Time Temperature Precipitation Wind Pressure Humidity
    00:00 -2°C° 0 mm 4 mps 740 mmHg 86%
    01:00 -3°C° 0 mm 4 mps 740 mmHg 87%
    02:00 -3°C° 0 mm 4 mps 740 mmHg 87%
    03:00 -3°C° 0 mm 4 mps 740 mmHg 87%
    04:00 -4°C° 0 mm 4 mps 740 mmHg 88%
    05:00 -3°C° 0 mm 4 mps 740 mmHg 86%
    06:00 -3°C° 0 mm 4 mps 740 mmHg 84%
    07:00 -2°C° 0 mm 4 mps 740 mmHg 82%
    08:00 -2°C° 0 mm 4 mps 740 mmHg 81%
    09:00 -1°C° 0 mm 5 mps 740 mmHg 79%
    10:00 -1°C° 0 mm 5 mps 740 mmHg 77%
    11:00 0°C° 0 mm 5 mps 740 mmHg 76%
    12:00 0°C° 0 mm 5 mps 740 mmHg 75%
    13:00 +1°C° 0 mm 5 mps 741 mmHg 74%
    14:00 +1°C° 0 mm 5 mps 741 mmHg 74%
    15:00 +1°C° 0 mm 5 mps 741 mmHg 74%
    16:00 +1°C° 0 mm 5 mps 741 mmHg 73%
    17:00 0°C° 0 mm 4 mps 741 mmHg 80%
    18:00 -1°C° 0 mm 4 mps 741 mmHg 86%
    19:00 -1°C° 0 mm 3 mps 741 mmHg 92%
    20:00 0°C° 0 mm 3 mps 741 mmHg 91%
    21:00 -1°C° 0 mm 4 mps 741 mmHg 90%
    22:00 -1°C° 0 mm 4 mps 741 mmHg 89%
    23:00 -1°C° 0 mm 4 mps 741 mmHg 88%
    Show more